Content
SEND FEEDBACK

Daily
Averages
Monthly
Summary
Switzerland

GENEVA, SWITZERLAND


Home > Europe > Switzerland
Elevation: 415 meters     Latitude: 46 15N     Longitude: 006 08E

WEATHER
 
SELECT A DAY
Number of Records: 305,246;   Date Range: 7/1/96 - 7/7/14
 
SHARE

PRINT THIS DATA

[ ← Previous Day ]
WEATHER ALMANAC - 6 FEBRUARY, 2013
[ Next Day → ]
[ °F ]   °C
Weather ElementAverageHighLow
Temperature1.3 °C3 °C (12:20 am)0 °C (8:50 am)
Dewpoint-1.5 °C1 °C (4:20 pm)-5 °C (7:00 am)
Humidity80.5 %100 % (7:20 pm)50 % (7:00 am)
Barometer1003.4 hPa1009.1 hPa (1:00 am)999 hPa (2:20 pm)
Wind Speed17.1 km/h29.6 km/h (12:00 pm)
Wind Gust42.6 km/h (1:20 pm)
Weather ElementAverage
Visibility9.7 km
Wind DirectionSSW (197.9 °)

Weather ElementTotal
Precipitation---
Heating Degree Days16.8 (Base 18.3)
Averaged from 66 records on 6 February, 2013
WEATHER CONDITIONS BREAKOUT
WIND DIRECTION BREAKOUT
WEATHER BY HOUR - 6 FEBRUARY, 2013
[ °F ]   °C
Local TimeTemperatureDewpointHumidityBarometerVisibilityWind DirectionWind SpeedGust SpeedPrecipitationEventsConditions
12:20 AM3 °C-2 °C70 %1007.1 hPa10 kmSW (220°)24.1 km/hMostly Cloudy
12:50 AM2 °C-1 °C81 %1007.1 hPa5 kmWest (270°)7.4 km/hMostly Cloudy
1:00 AM0.6 °C-1.1 °C84 %1009.1 hPa40.2 kmNorth (10°)3.7 km/hPartly Cloudy
1:20 AM1 °C-1 °C87 %1006.1 hPa10 kmVariable1.9 km/hMostly Cloudy
1:50 AM2 °C-2 °C75 %1006.1 hPa10 kmSW (230°)18.5 km/hMostly Cloudy
2:00 AM2.2 °C-2.8 °C59 %1008.1 hPaSW (220°)20.4 km/h
2:50 AM1 °C-1 °C87 %1006.1 hPa10 kmSouth (190°)22.2 km/hMostly Cloudy
3:00 AM1.7 °C-2.2 °C66 %1007.8 hPaSouth (190°)22.2 km/h
3:20 AM2 °C-2 °C75 %1005.1 hPa10 kmSouth (190°)24.1 km/hMostly Cloudy
3:50 AM2 °C-3 °C70 %1005.1 hPa10 kmSSW (200°)24.1 km/hScattered Clouds
4:20 AM2 °C-3 °C70 %1004.1 hPa10 kmSSW (200°)24.1 km/hMostly Cloudy
4:50 AM1 °C-2 °C81 %1004.1 hPa10 kmSSW (200°)20.4 km/hMostly Cloudy
5:00 AM1.7 °C-2.2 °C66 %1006.4 hPaSSW (200°)22.2 km/h
5:20 AM1 °C-2 °C81 %1004.1 hPa10 kmSSW (200°)24.1 km/hMostly Cloudy
5:50 AM2 °C-2 °C75 %1004.1 hPa10 kmSSW (200°)24.1 km/hMostly Cloudy
6:00 AM1.7 °C-3.3 °C60 %1005.8 hPaSSW (200°)22.2 km/h
6:20 AM2 °C-3 °C70 %1003 hPa10 kmSSW (200°)20.4 km/hMostly Cloudy
6:50 AM2 °C-4 °C65 %1002 hPa10 kmSSW (200°)20.4 km/hMostly Cloudy
7:00 AM1.7 °C-5 °C50 %1004.4 hPa30.6 kmSSW (210°)20.4 km/hOvercast
7:20 AM2 °C-4 °C65 %1002 hPa10 kmSW (220°)18.5 km/hMostly Cloudy
7:50 AM1 °C-3 °C75 %1002 hPa10 kmWSW (240°)20.4 km/hMostly Cloudy
8:00 AM1.1 °C-3.3 °C62 %1004.1 hPaWSW (240°)24.1 km/h
8:20 AM1 °C-3 °C75 %1002 hPa8 kmSW (230°)18.5 km/hSnowLight Snow
8:50 AM0 °C-1 °C93 %1002 hPa2.3 kmSW (230°)20.4 km/hSnowSnow
9:00 AM0 °C-1.7 °C85 %1004.4 hPaSW (230°)20.4 km/h
9:20 AM0 °C-1 °C93 %1002 hPa8 kmSW (220°)24.1 km/hMostly Cloudy
9:50 AM1 °C-2 °C81 %1002 hPa10 kmSSW (210°)27.8 km/hMostly Cloudy
10:20 AM1 °C-2 °C81 %1001 hPa10 kmSW (220°)25.9 km/hMostly Cloudy
10:50 AM1 °C-2 °C81 %1001 hPa5 kmSW (220°)27.8 km/hSnowSnow Showers
11:00 AM1.7 °C-1.7 °C69 %1003 hPaSW (230°)27.8 km/h
11:20 AM1 °C-1 °C87 %1001 hPa5 kmSW (220°)24.1 km/hSnowSnow Showers
11:50 AM2 °C-1 °C81 %1001 hPa9 kmSW (220°)27.8 km/hSnowLight Snow
12:00 PM2.2 °C-1.7 °C67 %1002.4 hPaSW (220°)29.6 km/h
12:20 PM2 °C-1 °C81 %1000 hPa3.5 kmSW (230°)25.9 km/hSnowSnow
12:50 PM1 °C0 °C93 %1000 hPa1.9 kmSW (220°)24.1 km/hSnowSnow
1:00 PM1.7 °C0 °C83 %1002 hPa1.6 kmSW (220°)20.4 km/hSnowHeavy Snow
1:20 PM2 °C0 °C87 %1000 hPaSW (230°)22.2 km/h42.6 km/hSnowLight Snow
1:50 PM1 °C0 °C93 %1000 hPa3.1 kmSSW (210°)22.2 km/hSnowLight Snow
2:00 PM1.7 °C0 °C84 %1001.7 hPaSSW (210°)24.1 km/h
2:20 PM1 °C0 °C93 %999 hPa0.8 kmSSW (210°)24.1 km/hSnowHeavy Snow
2:50 PM1 °C0 °C93 %1000 hPaSSW (210°)13 km/hSnowLight Snow
3:00 PM1.1 °C0 °C89 %1001.7 hPaSSW (200°)11.1 km/h
3:20 PM1 °C0 °C93 %1000 hPa3.1 kmSSW (210°)13 km/hSnowSnow
3:50 PM1 °C0 °C93 %1000 hPa4.5 kmSW (220°)18.5 km/hSnowSnow Showers
4:20 PM2 °C1 °C93 %1000 hPa10 kmSW (230°)16.7 km/hRainLight Rain Showers
4:50 PM2 °C1 °C93 %1000 hPa10 kmSSW (210°)9.3 km/hRain-SnowLight Rain Showers
5:00 PM2.2 °C0.6 °C82 %1002 hPaSW (220°)18.5 km/h
5:20 PM2 °C1 °C93 %1000 hPa10 kmWSW (250°)9.3 km/hRain-SnowLight Rain Showers
5:50 PM2 °C1 °C93 %1001 hPa10 kmWSW (240°)11.1 km/hRainLight Rain Showers
6:00 PM1.7 °C0 °C83 %1003 hPaWNW (290°)7.4 km/h
6:20 PM2 °C0 °C87 %1001 hPa10 kmVariable5.6 km/hMostly Cloudy
6:50 PM1 °C-1 °C87 %1002 hPa1 kmNNW (330°)13 km/hSnowHeavy Snow Showers
7:00 PM0.6 °C-0.6 °C91 %1005.1 hPa45.1 kmWest (260°)7.4 km/hRainLight Rain Showers
7:20 PM0 °C0 °C100 %1003 hPa9 kmSouth (180°)7.4 km/hSnowLight Snow Showers
7:50 PM1 °C-1 °C87 %1003 hPa10 kmVariable11.1 km/hMostly Cloudy
8:00 PM1.7 °C-3.9 °C56 %1005.1 hPaWNW (290°)13 km/h
8:20 PM1 °C-3 °C75 %1003 hPa3.5 kmNNW (330°)7.4 km/hSnowSnow
8:50 PM1 °C-2 °C81 %1004.1 hPa9 kmVariable5.6 km/hSnowLight Snow
9:00 PM0.6 °C-2.2 °C77 %1006.1 hPaNorth7.4 km/h
9:20 PM0 °C-2 °C87 %1004.1 hPa8 kmWest (260°)7.4 km/hMostly Cloudy
9:50 PM1 °C-3 °C75 %1004.1 hPa10 kmSSW (200°)7.4 km/hMostly Cloudy
10:20 PM0 °C-2 °C87 %1005.1 hPa10 kmVariable3.7 km/hMostly Cloudy
10:50 PM0 °C-2 °C87 %1005.1 hPa10 kmVariable3.7 km/hMostly Cloudy
11:00 PM1.1 °C-2.2 °C69 %1007.5 hPaWSW (240°)9.3 km/h
11:20 PM0 °C-1 °C93 %1005.1 hPa8 kmSW (220°)13 km/hSnowLight Snow Showers
11:50 PM0 °C-2 °C87 %1006.1 hPa9 kmWest (260°)7.4 km/hMostly Cloudy
Hourly data recorded from LSGG, located 0 kilometers away from Geneva, Switzerland







STORIES FROM OUR PARTNERS